When you browse on this site, cookies collect data to enhance your experience and personalize the content and advertising you see.
Visit our Privacy Policy to learn more. By continuing to use the site, you agree to this use of cookies and data.
  • în România
  • Lista ţărilor
  • Pe 7 zile
  • Temperatura apei
  • Hartă satelitară
  • Meteo pe hartă
  • Widget-uri
  • user-avatar
    Intrare

    Meteo pe oră la Gumla

    Astăzi, 19 Iulie, Vineri

    Timp Temperatura Precipitaţii Vânt Presiune Umiditate
    00:00 +29°C° 0 mm 1 m/s 699 mmHg 71%
    01:00 +27°C° 0 mm 0 m/s 699 mmHg 72%
    02:00 +26°C° 0 mm 0 m/s 698 mmHg 74%
    03:00 +26°C° 0 mm 0 m/s 698 mmHg 76%
    04:00 +26°C° 0.1 mm 0 m/s 698 mmHg 76%
    05:00 +26°C° 0.1 mm 0 m/s 698 mmHg 77%
    06:00 +26°C° 0 mm 0 m/s 699 mmHg 80%
    07:00 +29°C° 0 mm 1 m/s 699 mmHg 74%
    08:00 +30°C° 0 mm 1 m/s 699 mmHg 68%
    09:00 +31°C° 0 mm 2 m/s 699 mmHg 62%
    10:00 +34°C° 0.7 mm 2 m/s 699 mmHg 58%
    11:00 +35°C° 0.7 mm 3 m/s 700 mmHg 55%
    12:00 +36°C° 0 mm 3 m/s 700 mmHg 51%
    13:00 +35°C° 1.5 mm 4 m/s 699 mmHg 52%
    14:00 +35°C° 1.5 mm 4 m/s 699 mmHg 54%
    15:00 +35°C° 1.5 mm 4 m/s 698 mmHg 55%
    16:00 +34°C° 2.6 mm 4 m/s 698 mmHg 61%
    17:00 +33°C° 2.6 mm 3 m/s 698 mmHg 67%
    18:00 +31°C° 0 mm 3 m/s 698 mmHg 72%
    19:00 +30°C° 1.1 mm 3 m/s 698 mmHg 75%
    20:00 +29°C° 1.1 mm 3 m/s 698 mmHg 78%
    21:00 +29°C° 1.1 mm 3 m/s 699 mmHg 81%
    22:00 +28°C° 0.2 mm 2 m/s 699 mmHg 83%
    23:00 +28°C° 0.2 mm 2 m/s 699 mmHg 84%

    Mâine, 20 Iulie, Sâmbătă

    Timp Temperatura Precipitaţii Vânt Presiune Umiditate
    00:00 +27°C° 0.2 mm 2 m/s 699 mmHg 86%
    01:00 +27°C° 0 mm 2 m/s 699 mmHg 88%
    02:00 +27°C° 0 mm 1 m/s 699 mmHg 90%
    03:00 +26°C° 0 mm 1 m/s 698 mmHg 93%
    04:00 +26°C° 0 mm 1 m/s 699 mmHg 93%
    05:00 +26°C° 0 mm 1 m/s 699 mmHg 94%
    06:00 +26°C° 0 mm 1 m/s 699 mmHg 95%
    07:00 +27°C° 0 mm 2 m/s 700 mmHg 88%
    08:00 +28°C° 0 mm 2 m/s 700 mmHg 81%
    09:00 +29°C° 0 mm 2 m/s 701 mmHg 74%
    10:00 +30°C° 0 mm 3 m/s 701 mmHg 70%
    11:00 +31°C° 0 mm 3 m/s 701 mmHg 66%
    12:00 +33°C° 0 mm 3 m/s 701 mmHg 62%
    13:00 +33°C° 0 mm 3 m/s 700 mmHg 61%
    14:00 +34°C° 0 mm 3 m/s 699 mmHg 60%
    15:00 +34°C° 0 mm 3 m/s 699 mmHg 58%
    16:00 +34°C° 0.1 mm 2 m/s 699 mmHg 60%
    17:00 +34°C° 0.1 mm 2 m/s 698 mmHg 62%
    18:00 +32°C° 0.1 mm 2 m/s 698 mmHg 64%
    19:00 +31°C° 0.2 mm 2 m/s 698 mmHg 69%
    20:00 +30°C° 0.2 mm 2 m/s 699 mmHg 73%
    21:00 +29°C° 0.2 mm 2 m/s 699 mmHg 78%
    22:00 +29°C° 0.1 mm 2 m/s 699 mmHg 80%
    23:00 +28°C° 0.1 mm 2 m/s 699 mmHg 81%

    Poimâine, 21 Iulie, Duminică

    Timp Temperatura Precipitaţii Vânt Presiune Umiditate
    00:00 +28°C° 0.1 mm 3 m/s 700 mmHg 83%
    01:00 +27°C° 0 mm 3 m/s 699 mmHg 86%
    02:00 +27°C° 0 mm 2 m/s 699 mmHg 89%
    03:00 +26°C° 0 mm 2 m/s 699 mmHg 92%
    04:00 +26°C° 0 mm 2 m/s 699 mmHg 92%
    05:00 +26°C° 0 mm 2 m/s 699 mmHg 92%
    06:00 +26°C° 0 mm 2 m/s 699 mmHg 92%
    07:00 +27°C° 0 mm 2 m/s 699 mmHg 85%
    08:00 +28°C° 0 mm 2 m/s 700 mmHg 78%
    09:00 +29°C° 0 mm 3 m/s 700 mmHg 71%
    10:00 +31°C° 0 mm 3 m/s 700 mmHg 66%
    11:00 +33°C° 0 mm 3 m/s 700 mmHg 61%
    12:00 +34°C° 0 mm 3 m/s 700 mmHg 55%
    13:00 +35°C° 0 mm 3 m/s 699 mmHg 55%
    14:00 +35°C° 0 mm 3 m/s 699 mmHg 54%
    15:00 +36°C° 0 mm 3 m/s 698 mmHg 53%
    16:00 +35°C° 0.1 mm 3 m/s 698 mmHg 56%
    17:00 +34°C° 0.1 mm 3 m/s 698 mmHg 59%
    18:00 +34°C° 0.1 mm 3 m/s 697 mmHg 62%
    19:00 +33°C° 0.5 mm 3 m/s 698 mmHg 67%
    20:00 +31°C° 0.5 mm 3 m/s 698 mmHg 72%
    21:00 +30°C° 0.5 mm 2 m/s 698 mmHg 77%
    22:00 +29°C° 0.1 mm 2 m/s 698 mmHg 78%
    23:00 +29°C° 0.1 mm 2 m/s 698 mmHg 80%

    22 Iulie, Luni

    Timp Temperatura Precipitaţii Vânt Presiune Umiditate
    00:00 +28°C° 0.1 mm 2 m/s 698 mmHg 81%
    01:00 +28°C° 0.1 mm 2 m/s 698 mmHg 83%
    02:00 +28°C° 0.1 mm 2 m/s 698 mmHg 84%
    03:00 +27°C° 0.1 mm 2 m/s 698 mmHg 86%
    04:00 +27°C° 0.7 mm 2 m/s 698 mmHg 88%
    05:00 +27°C° 0.7 mm 2 m/s 698 mmHg 89%
    06:00 +26°C° 0.7 mm 2 m/s 698 mmHg 91%
    07:00 +28°C° 0.4 mm 3 m/s 698 mmHg 85%
    08:00 +29°C° 0.4 mm 3 m/s 699 mmHg 79%
    09:00 +32°C° 0.4 mm 4 m/s 699 mmHg 73%
    10:00 +33°C° 0.4 mm 4 m/s 699 mmHg 68%
    11:00 +34°C° 0.4 mm 4 m/s 699 mmHg 63%
    12:00 +35°C° 0.4 mm 4 m/s 699 mmHg 58%
    13:00 +35°C° 0.9 mm 3 m/s 698 mmHg 57%
    14:00 +35°C° 0.9 mm 3 m/s 698 mmHg 56%
    15:00 +35°C° 0.9 mm 2 m/s 698 mmHg 56%
    16:00 +34°C° 1 mm 3 m/s 697 mmHg 59%
    17:00 +34°C° 1 mm 3 m/s 697 mmHg 63%
    18:00 +33°C° 1 mm 3 m/s 697 mmHg 67%
    19:00 +31°C° 0.3 mm 3 m/s 697 mmHg 70%
    20:00 +30°C° 0.3 mm 2 m/s 698 mmHg 74%
    21:00 +29°C° 0.3 mm 1 m/s 698 mmHg 78%
    22:00 +29°C° 0.2 mm 1 m/s 698 mmHg 79%
    23:00 +29°C° 0.2 mm 1 m/s 698 mmHg 79%

    23 Iulie, Marţi

    Timp Temperatura Precipitaţii Vânt Presiune Umiditate
    00:00 +28°C° 0.2 mm 1 m/s 698 mmHg 80%
    01:00 +28°C° 0 mm 2 m/s 698 mmHg 81%
    02:00 +27°C° 0 mm 2 m/s 697 mmHg 83%
    03:00 +27°C° 0 mm 3 m/s 697 mmHg 85%
    04:00 +26°C° 0.1 mm 2 m/s 697 mmHg 86%
    05:00 +26°C° 0.1 mm 2 m/s 697 mmHg 87%
    06:00 +26°C° 0.1 mm 2 m/s 697 mmHg 88%
    07:00 +27°C° 0 mm 2 m/s 698 mmHg 83%
    08:00 +28°C° 0 mm 2 m/s 698 mmHg 78%
    09:00 +29°C° 0 mm 2 m/s 699 mmHg 73%
    10:00 +30°C° 0.4 mm 2 m/s 699 mmHg 69%
    11:00 +31°C° 0.4 mm 2 m/s 699 mmHg 65%
    12:00 +34°C° 0.4 mm 3 m/s 698 mmHg 61%
    13:00 +34°C° 1.6 mm 2 m/s 698 mmHg 60%
    14:00 +33°C° 1.6 mm 1 m/s 698 mmHg 59%
    15:00 +33°C° 1.6 mm 1 m/s 697 mmHg 58%
    16:00 +32°C° 1.6 mm 1 m/s 697 mmHg 63%
    17:00 +31°C° 1.6 mm 1 m/s 697 mmHg 68%
    18:00 +30°C° 1.6 mm 1 m/s 696 mmHg 73%
    19:00 +28°C° 0.1 mm 0 m/s 697 mmHg 73%
    20:00 +28°C° 0.1 mm 0 m/s 697 mmHg 74%
    21:00 +27°C° 0.1 mm 0 m/s 697 mmHg 75%
    22:00 +27°C° 0 mm 0 m/s 697 mmHg 75%
    23:00 +27°C° 0 mm 0 m/s 697 mmHg 75%

    24 Iulie, Miercuri

    Timp Temperatura Precipitaţii Vânt Presiune Umiditate
    00:00 +27°C° 0 mm 0 m/s 698 mmHg 75%
    01:00 +28°C° 0.1 mm 1 m/s 697 mmHg 76%
    02:00 +28°C° 0.1 mm 1 m/s 697 mmHg 77%
    03:00 +28°C° 0.1 mm 1 m/s 696 mmHg 78%
    04:00 +27°C° 0 mm 1 m/s 696 mmHg 79%
    05:00 +27°C° 0 mm 1 m/s 696 mmHg 80%
    06:00 +27°C° 0 mm 1 m/s 696 mmHg 82%
    07:00 +28°C° 0 mm 2 m/s 697 mmHg 76%
    08:00 +29°C° 0 mm 2 m/s 698 mmHg 69%
    09:00 +31°C° 0 mm 2 m/s 698 mmHg 63%
    10:00 +32°C° 0.1 mm 2 m/s 698 mmHg 60%
    11:00 +34°C° 0.1 mm 2 m/s 698 mmHg 57%
    12:00 +35°C° 0.1 mm 2 m/s 698 mmHg 53%
    13:00 +35°C° 0.5 mm 2 m/s 698 mmHg 53%
    14:00 +35°C° 0.5 mm 2 m/s 697 mmHg 53%
    15:00 +34°C° 0.5 mm 1 m/s 696 mmHg 53%
    16:00 +33°C° 0.7 mm 1 m/s 696 mmHg 57%
    17:00 +33°C° 0.7 mm 1 m/s 696 mmHg 60%
    18:00 +32°C° 0.7 mm 1 m/s 696 mmHg 64%
    19:00 +31°C° 0.8 mm 1 m/s 696 mmHg 67%
    20:00 +31°C° 0.8 mm 1 m/s 697 mmHg 70%
    21:00 +28°C° 0.8 mm 0 m/s 697 mmHg 73%
    22:00 +30°C° 0.3 mm 1 m/s 697 mmHg 74%
    23:00 +29°C° 0.3 mm 1 m/s 697 mmHg 74%
    Arată mai mult